Information on these data can be found in provided Readme document
Contact Info: Zachary Fasnacht (zachary.fasnacht@ssaihq.com); Nickolay Krotkov (nickolay.a.krotkov@nasa.gov); Lok Lamsal (lok.lamsal@nasa.gov)

FillValue: -999.
ScaleFactor: 1e15
Units: molecules/cm^2

Date(yyyy-mm-dd),City,Country,LonCenter,LatCenter,BoundingCoordinates,Median,Q1,Q3,Mean,Baseline_Median,Baseline_Q1,Baseline_Q3,Baseline_Mean,NumGoodSamples,NumTotalSamples
2015-01-01,HyderabadA,Pakistan,68.3578,25.396,[67.8578 24.896 68.8578 25.896],2.136,1.286,2.91,2.258,2.036,1.382,2.742,2.213,225.0,551.0
2015-01-02,HyderabadA,Pakistan,68.3578,25.396,[67.8578 24.896 68.8578 25.896],2.291,1.326,3.093,2.435,2.043,1.389,2.706,2.242,246.0,530.0
2015-01-03,HyderabadA,Pakistan,68.3578,25.396,[67.8578 24.896 68.8578 25.896],2.574,1.962,3.4,2.793,2.075,1.478,2.778,2.285,213.0,538.0
2015-01-04,HyderabadA,Pakistan,68.3578,25.396,[67.8578 24.896 68.8578 25.896],2.469,1.915,3.247,2.676,2.006,1.455,2.606,2.149,244.0,528.0
2015-01-05,HyderabadA,Pakistan,68.3578,25.396,[67.8578 24.896 68.8578 25.896],2.469,1.908,3.224,2.658,1.979,1.426,2.564,2.114,225.0,558.0
2015-01-06,HyderabadA,Pakistan,68.3578,25.396,[67.8578 24.896 68.8578 25.896],2.443,1.878,3.181,2.633,1.96,1.417,2.537,2.077,213.0,540.0
2015-01-07,HyderabadA,Pakistan,68.3578,25.396,[67.8578 24.896 68.8578 25.896],2.443,1.851,3.183,2.627,2.024,1.495,2.606,2.15,244.0,545.0
2015-01-08,HyderabadA,Pakistan,68.3578,25.396,[67.8578 24.896 68.8578 25.896],2.431,1.798,3.129,2.599,1.995,1.44,2.583,2.127,223.0,550.0
2015-01-09,HyderabadA,Pakistan,68.3578,25.396,[67.8578 24.896 68.8578 25.896],2.393,1.788,3.09,2.533,1.985,1.42,2.596,2.136,242.0,533.0
2015-01-10,HyderabadA,Pakistan,68.3578,25.396,[67.8578 24.896 68.8578 25.896],2.443,1.878,3.179,2.628,2.007,1.418,2.64,2.151,221.0,500.0
2015-01-11,HyderabadA,Pakistan,68.3578,25.396,[67.8578 24.896 68.8578 25.896],2.366,1.749,3.023,2.512,1.943,1.38,2.534,2.094,251.0,485.0
2015-01-12,HyderabadA,Pakistan,68.3578,25.396,[67.8578 24.896 68.8578 25.896],2.205,1.616,2.949,2.436,1.843,1.292,2.438,2.0,220.0,502.0
2015-01-13,HyderabadA,Pakistan,68.3578,25.396,[67.8578 24.896 68.8578 25.896],2.275,1.671,3.179,2.489,1.872,1.335,2.524,2.039,201.0,490.0
2015-01-14,HyderabadA,Pakistan,68.3578,25.396,[67.8578 24.896 68.8578 25.896],2.269,1.616,3.112,2.46,1.871,1.325,2.573,2.064,227.0,510.0
2015-01-15,HyderabadA,Pakistan,68.3578,25.396,[67.8578 24.896 68.8578 25.896],2.275,1.621,3.179,2.484,1.948,1.442,2.633,2.159,209.0,498.0
2015-01-16,HyderabadA,Pakistan,68.3578,25.396,[67.8578 24.896 68.8578 25.896],2.275,1.61,3.183,2.462,1.945,1.405,2.614,2.117,234.0,497.0
2015-01-17,HyderabadA,Pakistan,68.3578,25.396,[67.8578 24.896 68.8578 25.896],2.168,1.543,2.876,2.27,1.929,1.39,2.615,2.12,213.0,505.0
2015-01-18,HyderabadA,Pakistan,68.3578,25.396,[67.8578 24.896 68.8578 25.896],2.059,1.48,2.694,2.208,1.942,1.411,2.604,2.141,233.0,484.0
2015-01-19,HyderabadA,Pakistan,68.3578,25.396,[67.8578 24.896 68.8578 25.896],1.942,1.445,2.876,2.195,1.935,1.41,2.683,2.216,202.0,493.0
2015-01-20,HyderabadA,Pakistan,68.3578,25.396,[67.8578 24.896 68.8578 25.896],1.816,1.362,2.588,2.051,1.952,1.423,2.741,2.215,234.0,480.0
2015-01-21,HyderabadA,Pakistan,68.3578,25.396,[67.8578 24.896 68.8578 25.896],1.816,1.332,2.604,2.06,1.991,1.468,2.938,2.283,216.0,508.0
2015-01-22,HyderabadA,Pakistan,68.3578,25.396,[67.8578 24.896 68.8578 25.896],1.8,1.306,2.519,2.021,1.995,1.445,2.953,2.302,204.0,490.0
2015-01-23,HyderabadA,Pakistan,68.3578,25.396,[67.8578 24.896 68.8578 25.896],1.778,1.252,2.449,1.968,2.053,1.459,3.004,2.348,235.0,498.0
2015-01-24,HyderabadA,Pakistan,68.3578,25.396,[67.8578 24.896 68.8578 25.896],1.778,1.252,2.5,1.988,2.051,1.429,3.07,2.371,216.0,502.0
2015-01-25,HyderabadA,Pakistan,68.3578,25.396,[67.8578 24.896 68.8578 25.896],1.746,1.239,2.429,1.939,2.014,1.413,2.96,2.32,226.0,530.0
2015-01-26,HyderabadA,Pakistan,68.3578,25.396,[67.8578 24.896 68.8578 25.896],1.778,1.203,2.604,1.988,2.046,1.427,3.018,2.349,196.0,539.0
2015-01-27,HyderabadA,Pakistan,68.3578,25.396,[67.8578 24.896 68.8578 25.896],1.642,1.016,2.401,1.841,2.129,1.442,2.996,2.377,226.0,521.0
2015-01-28,HyderabadA,Pakistan,68.3578,25.396,[67.8578 24.896 68.8578 25.896],1.432,0.96,2.072,1.632,1.971,1.403,2.906,2.276,211.0,540.0
2015-01-29,HyderabadA,Pakistan,68.3578,25.396,[67.8578 24.896 68.8578 25.896],1.326,0.899,1.828,1.492,1.965,1.397,2.8,2.217,204.0,529.0
2015-01-30,HyderabadA,Pakistan,68.3578,25.396,[67.8578 24.896 68.8578 25.896],1.322,0.899,1.827,1.496,1.886,1.349,2.695,2.144,228.0,551.0
2015-01-31,HyderabadA,Pakistan,68.3578,25.396,[67.8578 24.896 68.8578 25.896],1.285,0.892,1.816,1.476,1.898,1.369,2.738,2.161,212.0,536.0
2015-02-01,HyderabadA,Pakistan,68.3578,25.396,[67.8578 24.896 68.8578 25.896],1.332,0.899,1.828,1.49,1.848,1.302,2.645,2.094,239.0,534.0
2015-02-02,HyderabadA,Pakistan,68.3578,25.396,[67.8578 24.896 68.8578 25.896],1.322,0.892,1.827,1.479,1.838,1.322,2.651,2.093,219.0,542.0
2015-02-03,HyderabadA,Pakistan,68.3578,25.396,[67.8578 24.896 68.8578 25.896],1.285,0.878,1.816,1.454,1.789,1.307,2.522,1.991,238.0,519.0
2015-02-04,HyderabadA,Pakistan,68.3578,25.396,[67.8578 24.896 68.8578 25.896],1.159,0.804,1.763,1.416,1.799,1.313,2.479,1.994,206.0,530.0
2015-02-05,HyderabadA,Pakistan,68.3578,25.396,[67.8578 24.896 68.8578 25.896],1.198,0.834,1.748,1.415,1.74,1.253,2.326,1.911,239.0,519.0
2015-02-06,HyderabadA,Pakistan,68.3578,25.396,[67.8578 24.896 68.8578 25.896],1.146,0.834,1.653,1.354,1.704,1.241,2.247,1.842,220.0,548.0
2015-02-07,HyderabadA,Pakistan,68.3578,25.396,[67.8578 24.896 68.8578 25.896],1.159,0.847,1.653,1.377,1.677,1.235,2.154,1.781,208.0,529.0
2015-02-08,HyderabadA,Pakistan,68.3578,25.396,[67.8578 24.896 68.8578 25.896],1.198,0.847,1.763,1.44,1.65,1.22,2.156,1.735,239.0,536.0
2015-02-09,HyderabadA,Pakistan,68.3578,25.396,[67.8578 24.896 68.8578 25.896],1.216,0.892,1.787,1.464,1.692,1.23,2.214,1.769,229.0,542.0
2015-02-10,HyderabadA,Pakistan,68.3578,25.396,[67.8578 24.896 68.8578 25.896],1.271,0.899,1.856,1.497,1.701,1.235,2.214,1.77,249.0,525.0
2015-02-11,HyderabadA,Pakistan,68.3578,25.396,[67.8578 24.896 68.8578 25.896],1.361,0.909,1.907,1.578,1.735,1.243,2.238,1.802,219.0,493.0
2015-02-12,HyderabadA,Pakistan,68.3578,25.396,[67.8578 24.896 68.8578 25.896],1.373,0.909,1.956,1.647,1.745,1.242,2.258,1.833,248.0,476.0
2015-02-13,HyderabadA,Pakistan,68.3578,25.396,[67.8578 24.896 68.8578 25.896],1.489,0.988,2.207,1.781,1.833,1.32,2.414,1.926,220.0,495.0
2015-02-14,HyderabadA,Pakistan,68.3578,25.396,[67.8578 24.896 68.8578 25.896],1.326,0.907,1.856,1.551,1.763,1.283,2.358,1.859,218.0,484.0
2015-02-15,HyderabadA,Pakistan,68.3578,25.396,[67.8578 24.896 68.8578 25.896],1.3,0.889,1.856,1.521,1.734,1.251,2.334,1.848,237.0,507.0
2015-02-16,HyderabadA,Pakistan,68.3578,25.396,[67.8578 24.896 68.8578 25.896],1.288,0.831,1.856,1.514,1.721,1.19,2.339,1.831,219.0,495.0
2015-02-17,HyderabadA,Pakistan,68.3578,25.396,[67.8578 24.896 68.8578 25.896],1.288,0.83,1.894,1.57,1.75,1.194,2.362,1.864,244.0,494.0
2015-02-18,HyderabadA,Pakistan,68.3578,25.396,[67.8578 24.896 68.8578 25.896],1.3,0.831,1.894,1.604,1.762,1.19,2.381,1.887,225.0,503.0
2015-02-19,HyderabadA,Pakistan,68.3578,25.396,[67.8578 24.896 68.8578 25.896],1.3,0.831,1.893,1.582,1.725,1.187,2.399,1.872,244.0,480.0
2015-02-20,HyderabadA,Pakistan,68.3578,25.396,[67.8578 24.896 68.8578 25.896],1.3,0.807,2.039,1.629,1.75,1.218,2.449,1.916,211.0,492.0
2015-02-21,HyderabadA,Pakistan,68.3578,25.396,[67.8578 24.896 68.8578 25.896],1.3,0.795,2.039,1.612,1.81,1.242,2.494,1.938,216.0,481.0
2015-02-22,HyderabadA,Pakistan,68.3578,25.396,[67.8578 24.896 68.8578 25.896],1.303,0.738,2.07,1.623,1.83,1.311,2.523,2.003,197.0,510.0
2015-02-23,HyderabadA,Pakistan,68.3578,25.396,[67.8578 24.896 68.8578 25.896],1.416,0.812,2.069,1.675,1.865,1.341,2.584,2.057,185.0,492.0
2015-02-24,HyderabadA,Pakistan,68.3578,25.396,[67.8578 24.896 68.8578 25.896],1.424,0.889,2.192,1.721,1.896,1.369,2.615,2.077,215.0,495.0
2015-02-25,HyderabadA,Pakistan,68.3578,25.396,[67.8578 24.896 68.8578 25.896],1.401,0.812,2.069,1.703,1.957,1.358,2.666,2.108,195.0,503.0
2015-02-26,HyderabadA,Pakistan,68.3578,25.396,[67.8578 24.896 68.8578 25.896],1.416,0.819,2.069,1.717,1.957,1.378,2.659,2.11,212.0,531.0
2015-02-27,HyderabadA,Pakistan,68.3578,25.396,[67.8578 24.896 68.8578 25.896],1.401,0.819,2.021,1.641,1.991,1.364,2.672,2.112,183.0,539.0
2015-02-28,HyderabadA,Pakistan,68.3578,25.396,[67.8578 24.896 68.8578 25.896],1.401,0.819,2.03,1.67,1.892,1.312,2.559,2.031,196.0,520.0
2015-03-01,HyderabadA,Pakistan,68.3578,25.396,[67.8578 24.896 68.8578 25.896],1.763,1.034,2.264,1.961,2.006,1.439,2.68,2.151,165.0,536.0
2015-03-02,HyderabadA,Pakistan,68.3578,25.396,[67.8578 24.896 68.8578 25.896],1.427,0.81,2.085,1.678,1.939,1.353,2.617,2.086,168.0,525.0
2015-03-03,HyderabadA,Pakistan,68.3578,25.396,[67.8578 24.896 68.8578 25.896],1.435,0.886,2.114,1.676,2.032,1.426,2.717,2.157,194.0,548.0
2015-03-04,HyderabadA,Pakistan,68.3578,25.396,[67.8578 24.896 68.8578 25.896],1.424,0.895,2.021,1.587,1.95,1.393,2.593,2.09,179.0,536.0
2015-03-05,HyderabadA,Pakistan,68.3578,25.396,[67.8578 24.896 68.8578 25.896],1.427,0.908,2.074,1.606,1.969,1.409,2.618,2.096,204.0,537.0
2015-03-06,HyderabadA,Pakistan,68.3578,25.396,[67.8578 24.896 68.8578 25.896],1.427,0.908,2.101,1.64,1.993,1.381,2.687,2.131,185.0,544.0
2015-03-07,HyderabadA,Pakistan,68.3578,25.396,[67.8578 24.896 68.8578 25.896],1.543,0.92,2.215,1.727,1.998,1.381,2.674,2.119,197.0,520.0
2015-03-08,HyderabadA,Pakistan,68.3578,25.396,[67.8578 24.896 68.8578 25.896],1.562,0.938,2.215,1.749,2.001,1.375,2.679,2.11,192.0,531.0
2015-03-09,HyderabadA,Pakistan,68.3578,25.396,[67.8578 24.896 68.8578 25.896],1.716,1.066,2.287,1.823,1.979,1.335,2.654,2.06,224.0,519.0
2015-03-10,HyderabadA,Pakistan,68.3578,25.396,[67.8578 24.896 68.8578 25.896],1.667,0.981,2.287,1.741,1.931,1.338,2.612,2.026,205.0,547.0
2015-03-11,HyderabadA,Pakistan,68.3578,25.396,[67.8578 24.896 68.8578 25.896],1.688,1.03,2.287,1.811,1.919,1.311,2.612,2.017,194.0,530.0
2015-03-12,HyderabadA,Pakistan,68.3578,25.396,[67.8578 24.896 68.8578 25.896],1.688,1.03,2.287,1.84,1.901,1.35,2.643,2.052,224.0,532.0
2015-03-13,HyderabadA,Pakistan,68.3578,25.396,[67.8578 24.896 68.8578 25.896],1.688,1.03,2.287,1.837,1.879,1.342,2.615,2.029,207.0,538.0
2015-03-14,HyderabadA,Pakistan,68.3578,25.396,[67.8578 24.896 68.8578 25.896],1.687,1.028,2.287,1.823,1.957,1.351,2.618,2.051,225.0,525.0
2015-03-15,HyderabadA,Pakistan,68.3578,25.396,[67.8578 24.896 68.8578 25.896],1.688,1.028,2.287,1.807,1.992,1.378,2.666,2.089,212.0,492.0
2015-03-16,HyderabadA,Pakistan,68.3578,25.396,[67.8578 24.896 68.8578 25.896],1.714,0.938,2.305,1.797,1.974,1.343,2.635,2.068,242.0,476.0
2015-03-17,HyderabadA,Pakistan,68.3578,25.396,[67.8578 24.896 68.8578 25.896],1.822,1.271,2.537,2.023,2.039,1.451,2.73,2.163,211.0,496.0
2015-03-18,HyderabadA,Pakistan,68.3578,25.396,[67.8578 24.896 68.8578 25.896],1.784,1.261,2.327,1.946,1.988,1.434,2.634,2.1,207.0,485.0
2015-03-19,HyderabadA,Pakistan,68.3578,25.396,[67.8578 24.896 68.8578 25.896],1.794,1.261,2.361,1.939,2.01,1.414,2.682,2.118,232.0,508.0
2015-03-20,HyderabadA,Pakistan,68.3578,25.396,[67.8578 24.896 68.8578 25.896],1.784,1.207,2.361,1.943,2.001,1.362,2.696,2.103,217.0,498.0
2015-03-21,HyderabadA,Pakistan,68.3578,25.396,[67.8578 24.896 68.8578 25.896],1.784,1.261,2.414,2.006,2.005,1.426,2.664,2.119,243.0,498.0
2015-03-22,HyderabadA,Pakistan,68.3578,25.396,[67.8578 24.896 68.8578 25.896],1.785,1.205,2.414,1.99,2.043,1.428,2.73,2.141,252.0,511.0
2015-03-23,HyderabadA,Pakistan,68.3578,25.396,[67.8578 24.896 68.8578 25.896],1.784,1.256,2.37,1.984,2.077,1.441,2.731,2.165,274.0,490.0
2015-03-24,HyderabadA,Pakistan,68.3578,25.396,[67.8578 24.896 68.8578 25.896],1.706,1.168,2.361,1.963,2.094,1.44,2.803,2.198,242.0,501.0
2015-03-25,HyderabadA,Pakistan,68.3578,25.396,[67.8578 24.896 68.8578 25.896],1.67,1.104,2.275,1.856,2.158,1.439,2.802,2.201,273.0,492.0
2015-03-26,HyderabadA,Pakistan,68.3578,25.396,[67.8578 24.896 68.8578 25.896],1.639,1.068,2.146,1.774,2.178,1.427,2.844,2.209,271.0,521.0
2015-03-27,HyderabadA,Pakistan,68.3578,25.396,[67.8578 24.896 68.8578 25.896],1.625,1.064,2.114,1.701,2.135,1.42,2.811,2.182,258.0,505.0
2015-03-28,HyderabadA,Pakistan,68.3578,25.396,[67.8578 24.896 68.8578 25.896],1.616,1.064,2.114,1.699,2.151,1.447,2.825,2.199,286.0,509.0
2015-03-29,HyderabadA,Pakistan,68.3578,25.396,[67.8578 24.896 68.8578 25.896],1.633,1.068,2.146,1.792,2.167,1.433,2.823,2.22,291.0,512.0
2015-03-30,HyderabadA,Pakistan,68.3578,25.396,[67.8578 24.896 68.8578 25.896],1.656,1.109,2.296,1.839,2.161,1.456,2.848,2.221,311.0,540.0
2015-03-31,HyderabadA,Pakistan,68.3578,25.396,[67.8578 24.896 68.8578 25.896],1.639,1.126,2.165,1.852,2.186,1.487,2.842,2.245,282.0,551.0
2015-04-01,HyderabadA,Pakistan,68.3578,25.396,[67.8578 24.896 68.8578 25.896],1.636,1.114,2.146,1.819,2.193,1.493,2.86,2.236,312.0,531.0
2015-04-02,HyderabadA,Pakistan,68.3578,25.396,[67.8578 24.896 68.8578 25.896],1.631,1.097,2.378,1.874,2.226,1.535,2.953,2.281,281.0,548.0
2015-04-03,HyderabadA,Pakistan,68.3578,25.396,[67.8578 24.896 68.8578 25.896],1.615,1.234,2.165,1.846,2.21,1.549,2.889,2.267,274.0,538.0
2015-04-04,HyderabadA,Pakistan,68.3578,25.396,[67.8578 24.896 68.8578 25.896],1.629,1.249,2.258,1.86,2.227,1.567,2.898,2.278,296.0,556.0
2015-04-05,HyderabadA,Pakistan,68.3578,25.396,[67.8578 24.896 68.8578 25.896],1.631,1.249,2.161,1.799,2.197,1.578,2.864,2.261,280.0,549.0
2015-04-06,HyderabadA,Pakistan,68.3578,25.396,[67.8578 24.896 68.8578 25.896],1.625,1.247,2.13,1.771,2.211,1.596,2.887,2.277,284.0,546.0
2015-04-07,HyderabadA,Pakistan,68.3578,25.396,[67.8578 24.896 68.8578 25.896],1.629,1.249,2.165,1.789,2.197,1.581,2.894,2.275,284.0,555.0
2015-04-08,HyderabadA,Pakistan,68.3578,25.396,[67.8578 24.896 68.8578 25.896],1.652,1.29,2.13,1.796,2.211,1.628,2.874,2.286,305.0,535.0
2015-04-09,HyderabadA,Pakistan,68.3578,25.396,[67.8578 24.896 68.8578 25.896],1.672,1.353,2.258,1.88,2.217,1.599,2.896,2.296,274.0,544.0
2015-04-10,HyderabadA,Pakistan,68.3578,25.396,[67.8578 24.896 68.8578 25.896],1.803,1.392,2.557,2.061,2.18,1.603,2.878,2.3,288.0,533.0
2015-04-11,HyderabadA,Pakistan,68.3578,25.396,[67.8578 24.896 68.8578 25.896],1.912,1.424,2.646,2.131,2.199,1.612,2.896,2.305,288.0,562.0
2015-04-12,HyderabadA,Pakistan,68.3578,25.396,[67.8578 24.896 68.8578 25.896],1.953,1.485,2.787,2.191,2.21,1.624,2.93,2.333,278.0,543.0
2015-04-13,HyderabadA,Pakistan,68.3578,25.396,[67.8578 24.896 68.8578 25.896],1.953,1.518,2.698,2.141,2.192,1.59,2.914,2.301,285.0,549.0
2015-04-14,HyderabadA,Pakistan,68.3578,25.396,[67.8578 24.896 68.8578 25.896],1.953,1.521,2.787,2.195,2.213,1.616,2.938,2.32,290.0,555.0
2015-04-15,HyderabadA,Pakistan,68.3578,25.396,[67.8578 24.896 68.8578 25.896],1.983,1.527,2.865,2.23,2.207,1.605,2.938,2.301,309.0,537.0
2015-04-16,HyderabadA,Pakistan,68.3578,25.396,[67.8578 24.896 68.8578 25.896],2.022,1.582,2.987,2.314,2.204,1.6,2.959,2.302,279.0,505.0
2015-04-17,HyderabadA,Pakistan,68.3578,25.396,[67.8578 24.896 68.8578 25.896],2.022,1.573,2.987,2.298,2.207,1.604,2.97,2.308,307.0,487.0
2015-04-18,HyderabadA,Pakistan,68.3578,25.396,[67.8578 24.896 68.8578 25.896],2.288,1.7,3.211,2.453,2.281,1.651,3.017,2.356,279.0,501.0
2015-04-19,HyderabadA,Pakistan,68.3578,25.396,[67.8578 24.896 68.8578 25.896],2.227,1.659,3.002,2.362,2.268,1.621,2.991,2.345,277.0,492.0
2015-04-20,HyderabadA,Pakistan,68.3578,25.396,[67.8578 24.896 68.8578 25.896],2.235,1.644,3.034,2.371,2.311,1.638,3.065,2.375,300.0,511.0
2015-04-21,HyderabadA,Pakistan,68.3578,25.396,[67.8578 24.896 68.8578 25.896],2.288,1.719,3.153,2.439,2.306,1.636,3.048,2.355,284.0,496.0
2015-04-22,HyderabadA,Pakistan,68.3578,25.396,[67.8578 24.896 68.8578 25.896],2.298,1.711,3.275,2.481,2.299,1.614,3.063,2.369,289.0,491.0
2015-04-23,HyderabadA,Pakistan,68.3578,25.396,[67.8578 24.896 68.8578 25.896],2.352,1.72,3.342,2.538,2.275,1.581,3.036,2.35,286.0,496.0
2015-04-24,HyderabadA,Pakistan,68.3578,25.396,[67.8578 24.896 68.8578 25.896],2.341,1.719,3.275,2.488,2.297,1.624,3.04,2.359,305.0,474.0
2015-04-25,HyderabadA,Pakistan,68.3578,25.396,[67.8578 24.896 68.8578 25.896],2.292,1.639,3.073,2.413,2.283,1.594,2.991,2.342,274.0,484.0
2015-04-26,HyderabadA,Pakistan,68.3578,25.396,[67.8578 24.896 68.8578 25.896],2.203,1.594,2.831,2.306,2.287,1.615,2.963,2.343,290.0,473.0
2015-04-27,HyderabadA,Pakistan,68.3578,25.396,[67.8578 24.896 68.8578 25.896],2.145,1.586,2.749,2.288,2.235,1.565,2.936,2.311,285.0,502.0
2015-04-28,HyderabadA,Pakistan,68.3578,25.396,[67.8578 24.896 68.8578 25.896],2.123,1.586,2.693,2.259,2.251,1.596,2.917,2.323,274.0,487.0
2015-04-29,HyderabadA,Pakistan,68.3578,25.396,[67.8578 24.896 68.8578 25.896],2.048,1.527,2.659,2.153,2.267,1.592,2.931,2.32,280.0,493.0
2015-04-30,HyderabadA,Pakistan,68.3578,25.396,[67.8578 24.896 68.8578 25.896],1.953,1.467,2.595,2.089,2.248,1.575,2.933,2.31,286.0,498.0
2015-05-01,HyderabadA,Pakistan,68.3578,25.396,[67.8578 24.896 68.8578 25.896],1.97,1.467,2.618,2.09,2.197,1.56,2.874,2.274,306.0,526.0
2015-05-02,HyderabadA,Pakistan,68.3578,25.396,[67.8578 24.896 68.8578 25.896],1.953,1.465,2.576,2.07,2.171,1.53,2.858,2.241,286.0,535.0
2015-05-03,HyderabadA,Pakistan,68.3578,25.396,[67.8578 24.896 68.8578 25.896],1.866,1.363,2.514,1.961,2.154,1.521,2.853,2.213,314.0,518.0
2015-05-04,HyderabadA,Pakistan,68.3578,25.396,[67.8578 24.896 68.8578 25.896],1.914,1.273,2.613,1.978,2.192,1.516,2.86,2.224,284.0,534.0
2015-05-05,HyderabadA,Pakistan,68.3578,25.396,[67.8578 24.896 68.8578 25.896],1.973,1.443,2.518,2.007,2.176,1.543,2.815,2.219,272.0,524.0
2015-05-06,HyderabadA,Pakistan,68.3578,25.396,[67.8578 24.896 68.8578 25.896],1.973,1.443,2.51,2.02,2.205,1.532,2.821,2.226,296.0,549.0
2015-05-07,HyderabadA,Pakistan,68.3578,25.396,[67.8578 24.896 68.8578 25.896],1.977,1.466,2.498,1.984,2.179,1.531,2.809,2.202,278.0,537.0
2015-05-08,HyderabadA,Pakistan,68.3578,25.396,[67.8578 24.896 68.8578 25.896],1.989,1.443,2.571,1.989,2.145,1.508,2.768,2.183,286.0,538.0
2015-05-09,HyderabadA,Pakistan,68.3578,25.396,[67.8578 24.896 68.8578 25.896],1.995,1.459,2.571,2.0,2.161,1.516,2.778,2.179,286.0,549.0
2015-05-10,HyderabadA,Pakistan,68.3578,25.396,[67.8578 24.896 68.8578 25.896],1.995,1.456,2.571,1.983,2.172,1.535,2.76,2.184,305.0,524.0
2015-05-11,HyderabadA,Pakistan,68.3578,25.396,[67.8578 24.896 68.8578 25.896],2.034,1.456,2.613,2.019,2.161,1.534,2.76,2.177,272.0,535.0
2015-05-12,HyderabadA,Pakistan,68.3578,25.396,[67.8578 24.896 68.8578 25.896],1.973,1.463,2.402,1.959,2.16,1.563,2.73,2.168,295.0,528.0
2015-05-13,HyderabadA,Pakistan,68.3578,25.396,[67.8578 24.896 68.8578 25.896],1.973,1.422,2.432,1.945,2.168,1.565,2.737,2.168,289.0,555.0
2015-05-14,HyderabadA,Pakistan,68.3578,25.396,[67.8578 24.896 68.8578 25.896],1.973,1.438,2.432,1.955,2.134,1.545,2.667,2.128,276.0,538.0
2015-05-15,HyderabadA,Pakistan,68.3578,25.396,[67.8578 24.896 68.8578 25.896],1.935,1.422,2.432,1.941,2.115,1.543,2.686,2.125,281.0,547.0
2015-05-16,HyderabadA,Pakistan,68.3578,25.396,[67.8578 24.896 68.8578 25.896],1.892,1.407,2.386,1.895,2.083,1.51,2.652,2.104,286.0,552.0
2015-05-17,HyderabadA,Pakistan,68.3578,25.396,[67.8578 24.896 68.8578 25.896],1.917,1.414,2.399,1.901,2.105,1.544,2.642,2.11,298.0,537.0
2015-05-18,HyderabadA,Pakistan,68.3578,25.396,[67.8578 24.896 68.8578 25.896],1.995,1.479,2.432,2.01,2.098,1.526,2.634,2.111,270.0,505.0
2015-05-19,HyderabadA,Pakistan,68.3578,25.396,[67.8578 24.896 68.8578 25.896],1.892,1.414,2.399,1.894,2.097,1.521,2.643,2.1,299.0,488.0
2015-05-20,HyderabadA,Pakistan,68.3578,25.396,[67.8578 24.896 68.8578 25.896],1.782,1.259,2.371,1.828,2.094,1.504,2.648,2.092,278.0,504.0
2015-05-21,HyderabadA,Pakistan,68.3578,25.396,[67.8578 24.896 68.8578 25.896],1.79,1.266,2.223,1.75,2.072,1.497,2.611,2.057,275.0,492.0
2015-05-22,HyderabadA,Pakistan,68.3578,25.396,[67.8578 24.896 68.8578 25.896],1.754,1.233,2.218,1.73,2.072,1.491,2.643,2.057,300.0,514.0
2015-05-23,HyderabadA,Pakistan,68.3578,25.396,[67.8578 24.896 68.8578 25.896],1.75,1.254,2.208,1.695,2.082,1.512,2.641,2.06,284.0,500.0
2015-05-24,HyderabadA,Pakistan,68.3578,25.396,[67.8578 24.896 68.8578 25.896],1.75,1.233,2.213,1.694,2.092,1.51,2.656,2.087,292.0,497.0
2015-05-25,HyderabadA,Pakistan,68.3578,25.396,[67.8578 24.896 68.8578 25.896],1.693,1.202,2.213,1.685,2.087,1.504,2.687,2.099,291.0,510.0
2015-05-26,HyderabadA,Pakistan,68.3578,25.396,[67.8578 24.896 68.8578 25.896],1.75,1.254,2.218,1.72,2.091,1.501,2.65,2.089,310.0,486.0
2015-05-27,HyderabadA,Pakistan,68.3578,25.396,[67.8578 24.896 68.8578 25.896],1.75,1.182,2.268,1.715,2.065,1.475,2.65,2.075,274.0,493.0
2015-05-28,HyderabadA,Pakistan,68.3578,25.396,[67.8578 24.896 68.8578 25.896],1.862,1.338,2.396,1.821,2.042,1.451,2.658,2.061,293.0,482.0
2015-05-29,HyderabadA,Pakistan,68.3578,25.396,[67.8578 24.896 68.8578 25.896],1.868,1.325,2.414,1.836,2.034,1.464,2.643,2.051,290.0,508.0
2015-05-30,HyderabadA,Pakistan,68.3578,25.396,[67.8578 24.896 68.8578 25.896],1.968,1.393,2.494,1.91,2.031,1.442,2.644,2.048,279.0,488.0
2015-05-31,HyderabadA,Pakistan,68.3578,25.396,[67.8578 24.896 68.8578 25.896],1.971,1.402,2.496,1.931,2.048,1.456,2.666,2.061,285.0,493.0
2015-06-01,HyderabadA,Pakistan,68.3578,25.396,[67.8578 24.896 68.8578 25.896],1.968,1.403,2.494,1.937,2.076,1.508,2.678,2.08,265.0,497.0
2015-06-02,HyderabadA,Pakistan,68.3578,25.396,[67.8578 24.896 68.8578 25.896],1.894,1.343,2.47,1.891,2.092,1.525,2.689,2.093,285.0,526.0
2015-06-03,HyderabadA,Pakistan,68.3578,25.396,[67.8578 24.896 68.8578 25.896],1.98,1.441,2.496,2.008,2.094,1.527,2.655,2.096,263.0,534.0
2015-06-04,HyderabadA,Pakistan,68.3578,25.396,[67.8578 24.896 68.8578 25.896],1.917,1.343,2.455,1.911,2.055,1.515,2.623,2.061,291.0,517.0
2015-06-05,HyderabadA,Pakistan,68.3578,25.396,[67.8578 24.896 68.8578 25.896],1.926,1.313,2.566,1.942,2.05,1.509,2.62,2.061,261.0,533.0
2015-06-06,HyderabadA,Pakistan,68.3578,25.396,[67.8578 24.896 68.8578 25.896],1.806,1.274,2.441,1.842,1.999,1.474,2.566,2.015,258.0,524.0
2015-06-07,HyderabadA,Pakistan,68.3578,25.396,[67.8578 24.896 68.8578 25.896],1.727,1.227,2.353,1.797,1.969,1.433,2.525,1.991,281.0,546.0
2015-06-08,HyderabadA,Pakistan,68.3578,25.396,[67.8578 24.896 68.8578 25.896],1.717,1.227,2.254,1.778,1.871,1.349,2.454,1.896,263.0,532.0
2015-06-09,HyderabadA,Pakistan,68.3578,25.396,[67.8578 24.896 68.8578 25.896],1.766,1.227,2.254,1.781,1.876,1.326,2.412,1.87,270.0,531.0
2015-06-10,HyderabadA,Pakistan,68.3578,25.396,[67.8578 24.896 68.8578 25.896],1.717,1.227,2.237,1.767,1.837,1.297,2.404,1.858,268.0,541.0
2015-06-11,HyderabadA,Pakistan,68.3578,25.396,[67.8578 24.896 68.8578 25.896],1.715,1.216,2.21,1.741,1.862,1.312,2.392,1.85,289.0,520.0
2015-06-12,HyderabadA,Pakistan,68.3578,25.396,[67.8578 24.896 68.8578 25.896],1.528,1.165,2.007,1.62,1.82,1.254,2.339,1.812,257.0,529.0
2015-06-13,HyderabadA,Pakistan,68.3578,25.396,[67.8578 24.896 68.8578 25.896],1.705,1.208,2.158,1.691,1.857,1.25,2.373,1.826,272.0,517.0
2015-06-14,HyderabadA,Pakistan,68.3578,25.396,[67.8578 24.896 68.8578 25.896],1.601,1.191,2.007,1.622,1.852,1.285,2.334,1.83,259.0,546.0
2015-06-15,HyderabadA,Pakistan,68.3578,25.396,[67.8578 24.896 68.8578 25.896],1.665,1.204,2.105,1.666,1.866,1.306,2.358,1.847,248.0,528.0
2015-06-16,HyderabadA,Pakistan,68.3578,25.396,[67.8578 24.896 68.8578 25.896],1.685,1.223,2.105,1.68,1.853,1.323,2.326,1.85,279.0,535.0
2015-06-17,HyderabadA,Pakistan,68.3578,25.396,[67.8578 24.896 68.8578 25.896],1.766,1.274,2.227,1.768,1.822,1.308,2.313,1.833,280.0,538.0
2015-06-18,HyderabadA,Pakistan,68.3578,25.396,[67.8578 24.896 68.8578 25.896],1.791,1.274,2.31,1.789,1.799,1.286,2.337,1.832,292.0,524.0
2015-06-19,HyderabadA,Pakistan,68.3578,25.396,[67.8578 24.896 68.8578 25.896],1.855,1.359,2.383,1.87,1.785,1.309,2.339,1.837,264.0,491.0
2015-06-20,HyderabadA,Pakistan,68.3578,25.396,[67.8578 24.896 68.8578 25.896],1.799,1.314,2.374,1.834,1.778,1.289,2.36,1.84,294.0,476.0